Date String (YYYY-MM-DD hh:mm:ss) UTC,Instrument flags,Ambient pressure (hPa),Sample flow (lpm),Bypass flow (lpm),Sample temperature (°C),Ambient temperature (°C),ASC tube jacket temperature (°C),LED temperature (°C),Box temperature (°C),Sample RH (%),Span deviation,Mass concentration (μg/m³),Mass concentration (μg/m³),Mass concentration (μg/m³)
DateTimeUTC,F1_M11,P_M11,Q1_M11,Q2_M11,T1_M11,T2_M11,T3_M11,T4_M11,T5_M11,U1_M11,ZSPAN_M11,X0_M11,X2_M11,X1_M11
2021-10-29 12:00:00,,0829.8,5.01,0.00,25.4,24.5,00.0,34.5,27.3,13.4,0000.0,0001.50,0000.99,0000.86
2021-10-29 12:01:00,,0829.9,5.00,0.00,25.4,24.5,00.0,34.5,27.3,13.4,0000.0,0001.52,0000.99,0000.85
2021-10-29 12:02:00,,0829.9,4.99,0.00,25.4,24.5,00.0,34.5,27.3,13.4,0000.0,0001.49,0000.99,0000.84
2021-10-29 12:03:00,,0829.9,5.00,0.00,25.4,24.5,00.0,34.5,27.3,13.4,0000.0,0001.35,0000.99,0000.85
2021-10-29 12:04:00,,0829.9,5.01,0.00,25.4,24.5,00.0,34.5,27.3,13.4,0000.0,0001.39,0001.01,0000.85
2021-10-29 12:05:00,,0829.9,4.99,0.00,25.4,24.5,00.0,34.5,27.3,13.4,0000.0,0001.40,0001.02,0000.85
2021-10-29 12:06:00,,0829.9,4.99,0.00,25.4,24.5,00.0,34.5,27.3,13.4,0000.0,0001.34,0000.99,0000.85
2021-10-29 12:07:00,,0829.9,4.99,0.00,25.4,24.5,00.0,34.5,27.3,13.4,0000.0,0001.34,0000.99,0000.85
2021-10-29 12:08:00,,0829.9,5.00,0.00,25.4,24.5,00.0,34.5,27.3,13.4,0000.0,0001.36,0001.00,0000.86
2021-10-29 12:09:00,,0829.9,4.99,0.00,25.4,24.5,00.0,34.5,27.3,13.4,0000.0,0001.54,0001.04,0000.87
2021-10-29 12:10:00,,0829.9,5.01,0.00,25.4,24.5,00.0,34.5,27.3,13.4,0000.0,0001.63,0001.07,0000.88
2021-10-29 12:11:00,,0829.9,5.01,0.00,25.4,24.5,00.0,34.5,27.3,13.4,0000.0,0001.64,0001.07,0000.88
2021-10-29 12:12:00,,0829.9,5.00,0.00,25.4,24.5,00.0,34.5,27.3,13.2,0000.0,0001.64,0001.08,0000.89
2021-10-29 12:13:00,,0829.9,5.00,0.00,25.4,24.5,00.0,34.5,27.3,13.0,0000.0,0001.57,0001.05,0000.88
2021-10-29 12:14:00,,0829.8,5.00,0.00,25.5,24.5,00.0,34.5,27.3,13.2,0000.0,0001.56,0001.03,0000.88
2021-10-29 12:15:00,,0830.0,4.99,0.00,25.5,24.6,00.0,34.5,27.3,13.2,0000.0,0001.58,0001.00,0000.87
2021-10-29 12:16:00,,0829.9,5.00,0.00,25.5,24.6,00.0,34.5,27.3,13.3,0000.0,0001.73,0001.02,0000.87
2021-10-29 12:17:00,,0830.0,5.01,0.00,25.5,24.6,00.0,34.5,27.3,13.3,0000.0,0001.85,0001.05,0000.88
2021-10-29 12:18:00,,0830.0,5.00,0.00,25.5,24.6,00.0,34.5,27.3,13.3,0000.0,0001.87,0001.06,0000.89
2021-10-29 12:19:00,,0830.0,4.99,0.00,25.5,24.6,00.0,34.5,27.3,13.3,0000.0,0001.88,0001.07,0000.89
2021-10-29 12:20:00,,0830.0,4.99,0.00,25.5,24.6,00.0,34.5,27.3,13.3,0000.0,0001.77,0001.05,0000.87
2021-10-29 12:21:00,,0829.9,5.00,0.00,25.5,24.6,00.0,34.5,27.3,13.3,0000.0,0001.76,0001.06,0000.88
2021-10-29 12:22:00,,0829.9,5.01,0.00,25.5,24.6,00.0,34.5,27.3,13.3,0000.0,0001.89,0001.10,0000.88
2021-10-29 12:23:00,,0829.9,5.00,0.00,25.5,24.6,00.0,34.5,27.3,13.3,0000.0,0001.98,0001.14,0000.88
2021-10-29 12:24:00,,0829.9,5.00,0.00,25.5,24.6,00.0,34.5,27.4,13.2,0000.0,0002.01,0001.16,0000.89
2021-10-29 12:25:00,,0829.9,5.00,0.00,25.5,24.6,00.0,34.5,27.4,13.3,0000.0,0002.66,0001.18,0000.90
2021-10-29 12:26:00,,0829.9,5.00,0.00,25.5,24.6,00.0,34.5,27.4,13.2,0000.0,0002.94,0001.22,0000.91
2021-10-29 12:27:00,,0829.9,5.00,0.00,25.5,24.6,00.0,34.5,27.4,13.2,0000.0,0002.83,0001.22,0000.93
2021-10-29 12:28:00,,0829.9,4.99,0.00,25.5,24.6,00.0,34.5,27.4,13.1,0000.0,0002.73,0001.22,0000.93
2021-10-29 12:29:00,,0830.0,5.01,0.00,25.5,24.6,00.0,34.5,27.4,13.2,0000.0,0002.70,0001.21,0000.94
2021-10-29 12:30:00,,0829.9,5.00,0.00,25.5,24.6,00.0,34.5,27.4,13.0,0000.0,0002.74,0001.23,0000.95
2021-10-29 12:31:00,,0830.0,4.99,0.00,25.5,24.6,00.0,34.5,27.4,12.8,0000.0,0002.71,0001.22,0000.95
2021-10-29 12:32:00,,0830.0,5.02,0.00,25.5,24.6,00.0,34.5,27.4,12.5,0000.0,0002.59,0001.17,0000.93
2021-10-29 12:33:00,,0830.0,5.00,0.00,25.5,24.6,00.0,34.5,27.4,12.5,0000.0,0002.45,0001.11,0000.91
2021-10-29 12:34:00,,0830.0,5.00,0.00,25.5,24.6,00.0,34.5,27.4,12.7,0000.0,0002.42,0001.10,0000.90
2021-10-29 12:35:00,,0830.0,5.01,0.00,25.5,24.6,00.0,34.5,27.4,12.8,0000.0,0002.46,0001.12,0000.91
2021-10-29 12:36:00,,0830.1,5.00,0.00,25.5,24.6,00.0,34.5,27.4,13.0,0000.0,0002.06,0001.15,0000.91
2021-10-29 12:37:00,,0830.0,5.01,0.00,25.5,24.6,00.0,34.5,27.4,13.2,0000.0,0002.30,0001.17,0000.93
2021-10-29 12:38:00,,0830.0,5.00,0.00,25.5,24.6,00.0,34.5,27.4,13.1,0000.0,0002.97,0001.20,0000.94
2021-10-29 12:39:00,,0830.0,5.00,0.00,25.5,24.6,00.0,34.5,27.4,13.2,0000.0,0003.21,0001.26,0000.95
2021-10-29 12:40:00,,0830.0,5.01,0.00,25.5,24.6,00.0,34.5,27.4,13.2,0000.0,0003.54,0001.27,0000.96
2021-10-29 12:41:00,,0830.0,4.99,0.00,25.5,24.6,00.0,34.5,27.4,13.1,0000.0,0003.59,0001.27,0000.96
2021-10-29 12:42:00,,0830.0,5.00,0.00,25.6,24.6,00.0,34.5,27.4,13.2,0000.0,0004.30,0001.31,0000.99
2021-10-29 12:43:00,,0830.0,5.01,0.00,25.6,24.6,00.0,34.5,27.4,13.2,0000.0,0006.30,0001.40,0001.03
2021-10-29 12:44:00,,0830.0,4.99,0.00,25.6,24.6,00.0,34.5,27.4,13.2,0000.0,0007.92,0001.57,0001.10
2021-10-29 12:45:00,,0829.9,5.01,0.00,25.6,24.6,00.0,34.5,27.4,13.1,0000.0,0008.34,0001.69,0001.14
2021-10-29 12:46:00,,0829.9,4.99,0.00,25.6,24.6,00.0,34.6,27.4,13.0,0000.0,0008.94,0001.78,0001.16
2021-10-29 12:47:00,,0830.0,5.01,0.00,25.6,24.6,00.0,34.6,27.4,13.1,0000.0,0009.21,0001.89,0001.18
2021-10-29 12:48:00,,0829.9,5.00,0.00,25.6,24.6,00.0,34.6,27.4,13.2,0000.0,0009.02,0001.91,0001.18
2021-10-29 12:49:00,,0829.9,5.01,0.00,25.6,24.6,00.0,34.6,27.4,13.1,0000.0,0008.70,0001.92,0001.18
2021-10-29 12:50:00,,0829.9,5.00,0.00,25.6,24.6,00.0,34.6,27.4,13.1,0000.0,0008.68,0001.93,0001.18
2021-10-29 12:51:00,,0830.0,5.01,0.00,25.6,24.6,00.0,34.6,27.4,13.0,0000.0,0008.59,0001.96,0001.17
2021-10-29 12:52:00,,0830.0,4.98,0.00,25.6,24.6,00.0,34.6,27.4,13.0,0000.0,0008.64,0002.01,0001.15
2021-10-29 12:53:00,,0829.8,5.01,0.00,25.6,24.6,00.0,34.6,27.4,12.8,0000.0,0008.64,0001.99,0001.13
2021-10-29 12:54:00,,0829.8,5.00,0.00,25.6,24.6,00.0,34.6,27.4,12.8,0000.0,0007.85,0001.97,0001.11
2021-10-29 12:55:00,,0829.9,5.01,0.00,25.6,24.6,00.0,34.6,27.4,12.8,0000.0,0007.50,0001.88,0001.07
2021-10-29 12:56:00,,0830.0,4.99,0.00,25.6,24.6,00.0,34.6,27.4,12.7,0000.0,0008.17,0001.79,0001.05
2021-10-29 12:57:00,,0829.9,5.01,0.00,25.6,24.6,00.0,34.6,27.4,12.6,0000.0,0008.00,0001.72,0001.03
2021-10-29 12:58:00,,0829.9,5.00,0.00,25.6,24.6,00.0,34.6,27.4,12.6,0000.0,0007.80,0001.60,0000.99
2021-10-29 12:59:00,,0829.9,4.99,0.00,25.6,24.6,00.0,34.6,27.4,12.5,0000.0,0007.68,0001.53,0000.95
